Погода в Шойне

Погода в Шойне : погода сейчас, прогноз погоды и архив. Всё, что Вы хотите узнать о погоде в Шойне!

Поиск расширенной информации на нашем сайте:

Полезная информация: Очки ray ban заказать очки.

Другие новости

Новости СМИ2

Главная страница сайта

Новости сайта

03.07.2017

Напоминаем, что на нашем специализированном сайте Метеоцентр.Азия вы можете получить высокодетализированные автоматические прогнозы погоды по пунктам России, СНГ и мира в авиационном формате (включающие направление и скорость ветра, видимость, явления погоды, количество и форму облачности, нижнюю и верхнюю границу облачности).

Рекомендуем: Бизнес по реализации разливного пива оборудование www.kegz.ru.

Погода в Шойне - сегодня

Время (UTC), дата Ветер
(°,м/с) 
Видим.   Явления Облачность Т
(°С)
Тd
(°С)
f(%) Тe
(°С)
Pmin
(гПа)
dP
(гПа)
Po
(мм)
O2
(г/м3)
Тmin Tmax R s Состояние
почвы
18 15.06.18 190 (Ю) 20000 м    1/0 верхняя 
[Ci fib]
+8.7 +0.9 58 +8  1017.4  -0.2  763  298           
21 15.06.18 140 (ЮВ) 20000 м    3/3 600 м 
[Sc]
+4.5 +4.1 97 +3  1017.6  0.2  763  302           
00 16.06.18 160 (Ю) 20000 м    6/3 600 м средняя 
[Sc|Ac trans]
+5.2 +3.6 89 +3  1017.9  0.3  763  301           
03 16.06.18 170 (Ю) 7{10}  20000 м    8/5 600 м средняя 
[Sc|Ac trans]
+11.2 +3.9 61 +10  1017.5  -0.3  763  295  +3.9         
18 16.06.18 130 (ЮВ) 20000 м    6/4 600 м верхняя 
[Sc|Cc]
+12.7 +8.6 76 +12  1015.4  0.1  761  292    +18.1       
21 16.06.18 100 (В) 20000 м    8/8 600 м 
[Sc]
+10.1 +8.8 92 +10  1016.1  0.6  762  294           
00 17.06.18 110 (В) 20000 м    8/5 600 м верхняя 
[Sc|Cc]
+8.7 +8 95 +8  1015.3  -0.8  761  296           
06 17.06.18 220 (ЮЗ) 20000 м    8/3 600 м верхняя 
[Sc|Cc]
+13 +9.5 79 +13  1015.3  0.2  761  291           
09 17.06.18 270 (З) 20000 м    4/1 600 м верхняя 
[Cu hum|Cc]
+11.1 +6.6 74 +11  1016.1  0.8  762  294           
12 17.06.18 320 (СЗ) 20000 м    8/3 600 м верхняя 
[Cu Sc|Cc]
+9.6 +6.9 83 +9  1017  0.9  762  296           
00 18.06.18 030 (СВ) 20000 м    8/8 600 м верхняя 
[Sc|Ci fib]
+9.7 +9 95 +10  1019.1  0.7  764  296           
06 18.06.18 070 (В) 20000 м    3/3 600 м средняя, верхняя 
[Sc|Ac trans|Cc]
+18.3 +8.8 54 +19  1019.3  0.1  764  287           
09 18.06.18 050 (СВ) 20000 м    4/1 300 м кучево-дожд., средняя 
[Cb calv|Ac trans]
+20.5 +8.4 46 +21  1018.5  -0.8  763  285           
12 18.06.18 120 (ЮВ) 20000 м    5/0 средняя, верхняя 
[Ac trans|Cc]
+20.8 +7.3 42 +21  1017.9  -0.6  763  285           
15 18.06.18 110 (В) 20000 м  пыльный позёмок  8/0 верхняя 
[Cs]
+19.3 +7.3 46 +19  1016.3  -1.6  762  286           
18 18.06.18 120 (ЮВ) 3{10}  20000 м    4/1 600 м верхняя 
[Sc|Cs]
+15.1 +8.8 66 +15  1014.8  -1.5  761  289           
21 18.06.18 110 (В) 8{11}  20000 м    6/3 600 м средняя, верхняя 
[Sc|Ac trans|Cc]
+9 +6.8 86 +7  1013.5  -1.4  760  295           
03 19.06.18 130 (ЮВ) 8{11}  20000 м  пыльный позёмок  8/8 300 м кучево-дожд. 
[Cb calv]
+12.8 +7.5 70 +11  1009.8  -1.5  757  290  +7.5         
03 20.06.18 120 (ЮВ) 9{15}  20000 м  пыльный позёмок  9/9 600 м 
[Sc]
+11.9 +7.9 76 +10  993.1  -1.8  744  286           
00 21.06.18 070 (В) 10{13}  20000 м    10/10 600 м 
[Sc]
+4.6 +4.6 100 +1  992  0.6  744  294           
09 21.06.18 340 (С) 20000 м    1/0 средняя 
[Ac trans]
+8.7 +6.2 84 +7  995.3  1.5  746  290           
12 21.06.18 330 (СЗ) 20000 м    1/0 верхняя 
[Ci fib]
+7 +5.1 88 +5  997.2  1.9  747  293           
15 21.06.18 330 (СЗ) 20000 м    8/0 средняя, верхняя 
[Ac trans|Cc]
+6.7 +5.1 90 +5  999.3  2.1  749  294           
18 21.06.18 330 (СЗ) 20000 м    9/8 600 м верхняя 
[Sc|Cc]
+6.2 +5.5 95 +4  1000.7  1.3  750  295           
21 21.06.18 330 (СЗ) 20000 м    10/10 600 м 
[Sc]
+6.6 +5.9 95 +5  1002  1.3  751  295           
Время (UTC), дата Ветер
(°,м/с) 
Видим.   Явления Облачность Т
(°С)
Тd
(°С)
f(%) Тe
(°С)
Pmin
(гПа)
dP
(гПа)
Po
(мм)
O2
(г/м3)
Тmin Tmax R s Состояние
почвы

Для получения пояснительной информации подведите курсор к названию столбца.

ПОГОДА в Шойне - архив

Всё, что Вы хотите узнать о погоде в Шойне - удобно и подробно!

Выберите нужную дату (начиная с 1 января 2015* года) и нажмите кнопку "Найти".
Будут отображены архивные сводки погоды по пункту Шойна, начиная с указанной даты.


Отображать данные в формате CSV (для использования в таблицах Excel)


Внимание! Наш архив погоды предназначен исключительно для личного некоммерческого использования в познавательных целях. Если Вам необходимы официальные справки о состоянии погоды (для производственных, юридических, коммерческих и т.п. целей), обращайтесь в органы Росгидромета.

*Примечание: данная дата относится к архиву по метеостанциям СССР (Россия, СНГ, Балтия).
Архив по метеостанциям Зарубежной Европы и Азии (кроме Китая) хранится 10 дней, по другим регионам земного шара (Китай, Африка, Америка, Австралия, Океания) - 1 день.

Шойна - район местоположения метеостанции


Название, широта, долгота, высота метеостанции:
Шойна 67.9°ш. 44.1°д. 8 м над ур. моря [Российская Федерация]

Дополнительная информация

В oтличие oт бoльшинства пoгoдных сайтoв мы публикуем пoдрoбную метеoинфoрмацию в детальнoм прoфессиoнальнoм фoрмате.

Характеристики температуры и влажнoсти вoздуха измеряются на высoте 2 м в тени вдали oт зданий и деревьев.
Скoрoсть ветра измеряется на высoте 10 м (на урoвне рoста челoвека скoрoсть ветра ниже в 1.5-2 раза). Если метеoстанция нахoдится в гoрoде или в лесу, тo скoрoсть ветра занижена на 2-4 м/с пo сравнению с oткрытым местoм. Скoрoсть ветра над акватoриями крупных рек и oзёр, а также на вершинах хoлмoв на 2-5 м/с выше, чем в oбычных услoвиях.
Атмoсфернoе давление в разных тoчках местнoсти мoжет значительнo oтличаться oт давления на метеoстанции, в зависимoсти oт услoвий рельефа (при пoдъёме на 10 м давление пoнижается примернo на 1 мм рт.ст.).